Weather History for KOTM - December, 2011

Change the Weather History Date:

Friday, December 2, 2011

  Actual Average Record
Temperature  
Mean Temperature 26 °F 31 °F  
Max Temperature 40 °F 40 °F 67 °F (1973)
Min Temperature 12 °F 22 °F -1 °F (1929)
Degree Days  
Heating Degree Days 39 34  
Month to date heating degree days 68 68  
Since 1 July heating degree days 1264 1366  
Cooling Degree Days 0 0  
Month to date cooling degree days 0 0  
Year to date cooling degree days 1111 938  
Moisture  
Dew Point 24 °F    
Average Humidity 76    
Maximum Humidity 92    
Minimum Humidity 59    
Precipitation  
Precipitation 0.00 in 0.06 in 0.80 in (1897)
Month to date precipitation T 0.12  
Year to date precipitation 32.59 35.82  
Sea Level Pressure  
Sea Level Pressure 30.36 in    
Wind  
Wind Speed 9 mph (SSE)    
Max Wind Speed 20 mph    
Max Gust Speed 24 mph    
Visibility 9 miles    
Events      
T = Trace of Precipitation, MM = Missing Value Source: NWS Daily Summary

Daily Weather History Graph

Daily Weather History Graph

Search for Another Location

Airport or City:

Trip Planner

Search our weather history database for the weather conditions in past years. The results will help you decide how hot, cold, wet, or windy it might be!

Date:

Astronomy

Dec. 02, 2011 Rise Set
Actual Time 7:16 AM CST 4:41 PM CST
Civil Twilight 6:45 AM CST 5:12 PM CST
Nautical Twilight 6:11 AM CST 5:46 PM CST
Astronomical Twilight 5:38 AM CST 6:19 PM CST
Moon 12:24 PM CST (12/2) No Moon Set
Length of Visible Light 10h 26m
Length of Day
9h 25m
First Quarter, 53% of the Moon is Illuminated
Dec 2
First Quarter
Dec 10
Full
Dec 17
Last Quarter
Dec 24
New
Jan 1
First Quarter

Hourly Weather History & Observations

Time (CST) Temp. Windchill Dew Point Humidity Pressure Visibility Wind Dir Wind Speed Gust Speed Precip Events Conditions
12:53 AM 24.1 °F 16.0 °F 21.0 °F 88% 30.45 in 10.0 mi NW 6.9 mph - N/A   Clear
1:53 AM 21.0 °F 10.6 °F 18.0 °F 88% 30.45 in 10.0 mi NW 9.2 mph - N/A   Clear
2:53 AM 21.0 °F 12.4 °F 18.0 °F 88% 30.45 in 10.0 mi NW 6.9 mph - N/A   Clear
3:53 AM 19.9 °F 9.3 °F 17.1 °F 89% 30.45 in 10.0 mi WNW 9.2 mph - N/A   Clear
4:53 AM 17.6 °F 6.4 °F 15.8 °F 93% 30.44 in 10.0 mi NW 9.2 mph - N/A   Clear
5:53 AM 15.8 °F 6.1 °F 12.2 °F 86% 30.44 in 10.0 mi NNW 6.9 mph - N/A   Clear
6:53 AM 12.9 °F 6.9 °F 10.0 °F 88% 30.47 in 10.0 mi WNW 3.5 mph - N/A   Clear
7:53 AM 15.8 °F - 14.0 °F 93% 30.43 in 10.0 mi Calm Calm - N/A   Clear
8:53 AM 21.0 °F - 16.0 °F 81% 30.48 in 10.0 mi Calm Calm - N/A   Clear
9:53 AM 24.1 °F 19.7 °F 19.0 °F 81% 30.48 in 10.0 mi SE 3.5 mph - N/A   Clear
10:53 AM 30.0 °F 25.2 °F 23.0 °F 75% 30.46 in 10.0 mi SE 4.6 mph - N/A   Clear
11:53 AM 34.0 °F 27.2 °F 25.0 °F 70% 30.42 in 10.0 mi SSE 8.1 mph - N/A   Clear
12:53 PM 36.0 °F 30.3 °F 24.1 °F 62% 30.40 in 10.0 mi SSE 6.9 mph - N/A   Clear
1:53 PM 39.0 °F 31.4 °F 26.1 °F 60% 30.37 in 10.0 mi SSE 12.7 mph - N/A   Clear
2:53 PM 39.0 °F 31.4 °F 27.0 °F 62% 30.33 in 10.0 mi South 12.7 mph - N/A   Clear
3:53 PM 34.0 °F 24.6 °F 27.0 °F 75% 30.32 in 10.0 mi SE 13.8 mph - N/A   Clear
4:33 PM 32.0 °F 21.2 °F 26.6 °F 80% 30.29 in 9.0 mi SSE 16.1 mph - N/A   Mostly Cloudy
4:53 PM 32.0 °F 21.6 °F 28.0 °F 85% 30.32 in 10.0 mi SSE 15.0 mph - N/A   Overcast
5:53 PM 33.1 °F 23.4 °F 28.9 °F 85% 30.32 in 8.0 mi SSE 13.8 mph - N/A   Overcast
6:53 PM 33.1 °F 24.4 °F 28.9 °F 85% 30.30 in 6.0 mi SSE 11.5 mph - N/A   Mostly Cloudy
7:00 PM 33.8 °F 24.8 °F 28.4 °F 81% 30.26 in 6.0 mi SSE 12.7 mph - N/A   Partly Cloudy
7:53 PM 33.1 °F 24.4 °F 28.9 °F 85% 30.30 in 6.0 mi SSE 11.5 mph - N/A   Clear
8:37 PM 33.8 °F 25.3 °F 30.2 °F 87% 30.24 in 6.0 mi SSE 11.5 mph - N/A   Mostly Cloudy
8:53 PM 35.1 °F 26.9 °F 30.9 °F 85% 30.27 in 6.0 mi SSE 11.5 mph - N/A   Overcast
9:53 PM 36.0 °F 27.1 °F 30.9 °F 82% 30.24 in 7.0 mi SSE 13.8 mph - N/A   Overcast
10:53 PM 37.9 °F 28.9 °F 32.0 °F 79% 30.21 in 7.0 mi SSE 16.1 mph 21.9 mph N/A   Overcast
11:53 PM 39.0 °F 30.3 °F 33.1 °F 79% 30.19 in 7.0 mi South 16.1 mph - N/A   Overcast